Retour au catalogue

USA 44

ActifMilitaireGEO
NORAD 20203·PAYLOAD·🇺🇸 United States

Lancé Sep 4, 1989 depuis Cape Canaveral Space Force Station

Loading…

TLE

FraisSource: Space-Track

Époque: Sep 13, 2026, 01:47 UTC

1 20203U 89069B   26256.07464323 -.00000261  00000-0  00000-0 0  9999
2 20203  14.7527   3.4036 0009446  19.7302 337.5137  0.99122292 25851

Suivez USA 44 en temps réel avec AllMySat

Download on the App Store